Regional Weather Roundup
Issued by NWS

Home | Current Version | Previous Version | Text Only | Print | Product List | Glossary Off
Versions: 1 2 3 4 5 6 7 8 9 10 11 12 13 14 15 16 17 18 19 20 21 22 23 24 25 26 27 28 29 30 31 32 33 34 35 36 37 38 39 40 41 42 43 44 45 46 47 48 49 50

000
ASUS43 KOAX 190410
RWRNE

WEATHER ROUNDUP FOR NEBRASKA
NATIONAL WEATHER SERVICE OMAHA NE
1100 PM CDT THU SEP 18 2014

NOTES: SATELLITE DATA IS BEING USED TO AUGMENT CLOUD COVER ABOVE
       12000 FEET.
       "FAIR" INDICATES FEW OR NO CLOUDS BELOW 12,000 FEET WITH NO
       SIGNIFICANT WEATHER AND/OR OBSTRUCTIONS TO VISIBILITY.

  * THESE STATIONS DO NOT REPORT WEATHER SUCH AS RAIN...SNOW OR FOG.

NEZ001>004-019>022-054>056-190500-
NEBRASKA PANHANDLE

CITY           SKY/WX    TMP DP  RH WIND       PRES   REMARKS
SCOTTSBLUFF    CLEAR     67  62  84 E12       29.86S
ALLIANCE       CLEAR     63  61  93 S14       29.87S
CHADRON        CLEAR     74  62  66 S22G33    29.77S
KIMBALL        CLEAR     67  60  77 S12       29.93S
SIDNEY         CLEAR     66  61  84 SE16      29.93R
$$

NEZ057>060-069>072-079>082-190500-
SOUTHWEST NEBRASKA

CITY           SKY/WX    TMP DP  RH WIND       PRES   REMARKS
NORTH PLATTE   CLEAR     57  56  96 CALM      29.89F
IMPERIAL       CLEAR     61  59  93 SE9       29.91S
LEXINGTON      FOG       59  58  97 SE3       29.89F VSB 1/4
MCCOOK         CLEAR     61  60  97 CALM      29.90S FOG
OGALLALA       PTCLDY    59  58  97 E5        29.90S FOG
$$

NEZ005>010-023>029-035>040-094-190500-
NORTH CENTRAL NEBRASKA

CITY           SKY/WX    TMP DP  RH WIND       PRES   REMARKS
VALENTINE      PTCLDY    64  61  90 S10       29.84S
AINSWORTH      CLOUDY    66  61  85 S13       29.85F
BROKEN BOW     CLOUDY    67  64  90 SE5       29.90F FOG
O`NEILL        CLOUDY    70  66  87 S16       29.88F
ORD            CLEAR     65  63  93 SE5       29.89S
THEDFORD       MOCLDY    65  62  87 S9        29.90S
$$

NEZ041-046>049-061>064-073>077-083>087-190500-
SOUTH CENTRAL NEBRASKA

CITY           SKY/WX    TMP DP  RH WIND       PRES   REMARKS
GRAND ISLAND   MOCLDY    66  63  90 SE12      29.92R
AURORA         CLOUDY    64  62  94 SE13G25   29.93R
HASTINGS       MOCLDY    66  62  87 SE15      29.92R
HEBRON         CLOUDY    64  61  90 SE16G22   29.96R FOG
HOLDREGE       CLEAR     65  62  88 SE12      29.90S
KEARNEY *      CLEAR     66  63  88 SE14      29.90S
YORK           CLOUDY    63  63 100 SE14G21   29.94S
$$

NEZ011>018-030>034-042>045-190500-
NORTHEAST NEBRASKA

CITY           SKY/WX    TMP DP  RH WIND       PRES   REMARKS
NORFOLK        CLEAR     64  58  80 SE16G25   29.92S
ALBION         CLEAR     64  59  85 SE10      29.91S
BLAIR          CLEAR     64  58  82 SE14      29.97S
COLUMBUS *     CLEAR     63  57  82 S10       29.95S
FREMONT        CLEAR     64  58  82 SE12G18   29.97R
TEKAMAH        CLEAR     62  56  80 SE13      29.96F
WAYNE          CLEAR     62  56  80 SE10      29.93S
$$

NEZ050>053-065>068-078-088>093-190500-
SOUTHEAST NEBRASKA

CITY           SKY/WX    TMP DP  RH WIND       PRES   REMARKS
LINCOLN        CLOUDY    64  59  83 S14       29.98R
OMAHA EPPLEY   PTCLDY    63  57  81 SE15      29.98S
BEATRICE       CLOUDY    63  60  91 SE12G18   29.98S
FALLS CITY     CLEAR     59  58  96 SE3       30.00S
NEBRASKA CITY  CLEAR     60  58  95 S6        30.00S
PLATTSMOUTH    CLEAR     60  58  90 SE8       30.00R
$$

NEZ044-045-051>053-067-190500-
OMAHA AREA

CITY           SKY/WX    TMP DP  RH WIND       PRES   REMARKS
OMAHA EPPLEY   PTCLDY    63  57  81 SE15      29.98S
BLAIR          CLEAR     64  58  82 SE14      29.97S
FREMONT        CLEAR     64  58  82 SE12G18   29.97R
MILLARD        CLEAR     63  59  88 SE10      29.98S
OFFUTT AFB     PTCLDY    61  61 100 SE8       29.99R
PLATTSMOUTH    CLEAR     60  58  90 SE8       30.00R
WAHOO          FAIR      62  57  86 SE13      29.97S
$$


USA.gov is the U.S. government's official web portal to all federal, state and local government web resources and services.